Temperature
22 22 21 20 20 20 22 24 25 25 24 24 24 23 22 21 21 19 19 19 20 20 20 20 20 20 19 19 19 19 19 19 19 19 19 19 19 19 19 19 19 19 19 19 18 18 18 18 18
22 22 21 20 20 21 23 24 25 25 24 24 23 23 22 20 20 19 19 19 20 20 20 20 20 20 19 19 19 19 19 19 19 19 19 19 19 19 19 19 19 19 19 19 19 18 18 18 18
22 21 21 20 21 22 24 25 25 25 25 24 23 22 21 20 20 19 20 20 20 20 20 20 20 19 19 19 19 19 19 19 19 19 19 19 19 19 19 19 19 19 19 19 19 19 18 18 18
22 22 21 21 23 24 25 25 26 25 24 24 23 22 21 21 20 20 20 20 20 20 20 20 20 20 19 19 19 19 19 19 19 19 19 19 19 19 19 19 19 19 19 19 19 19 18 18 18
23 22 21 22 24 25 26 26 26 25 24 23 22 21 20 20 20 20 20 20 20 20 20 19 20 20 20 19 19 19 19 19 19 19 19 19 19 19 19 19 19 19 19 19 19 19 18 18 18
23 22 22 23 25 26 26 26 25 24 23 23 22 21 20 20 20 20 20 20 20 20 20 19 19 20 20 20 19 19 19 19 19 19 19 19 19 19 19 19 19 19 19 19 19 19 19 18 18
23 22 23 24 25 26 26 26 25 24 24 23 22 21 20 20 20 20 20 20 20 20 20 19 19 19 19 20 19 19 19 19 19 19 19 19 19 19 19 19 19 19 19 19 19 19 18 18 18
24 22 24 25 25 26 26 26 25 24 24 23 22 21 20 20 20 20 20 20 19 19 20 19 19 19 19 19 19 19 19 19 19 19 19 19 19 19 18 19 19 19 19 19 19 19 18 18 18
25 22 23 25 25 25 26 25 25 25 24 23 23 22 21 20 20 20 19 19 19 19 19 19 19 19 19 19 19 19 19 19 19 19 19 19 19 18 19 19 19 19 19 19 19 19 19 18 18
25 23 25 27 26 26 26 25 25 24 23 22 22 21 21 20 20 20 19 19 19 19 19 19 19 19 19 19 19 19 19 19 19 19 19 19 19 18 19 19 19 19 19 19 19 19 19 19 18
25 25 27 28 28 27 26 25 25 24 22 22 22 21 21 21 20 20 20 20 20 19 19 19 19 19 19 19 19 19 19 19 19 19 19 19 19 19 19 19 19 19 19 19 19 19 19 19 19
27 27 28 28 28 27 26 25 25 24 23 23 22 22 21 21 20 20 20 20 20 20 20 19 19 19 19 19 19 19 19 19 19 19 19 19 19 19 19 19 19 19 19 19 19 19 19 19 19
27 28 29 28 28 27 26 25 25 24 23 23 22 22 21 21 21 21 21 20 20 20 20 20 19 19 19 19 19 19 19 19 19 19 19 19 19 19 19 19 19 19 19 19 19 19 19 19 19
28 28 28 28 28 27 26 25 25 24 24 23 22 22 22 21 21 21 21 20 20 20 20 20 20 19 19 19 19 19 19 19 19 19 19 19 19 19 19 19 19 19 19 19 19 19 19 19 18
28 27 27 28 28 27 26 25 25 24 24 23 23 22 22 22 21 21 21 21 20 20 20 20 20 20 19 19 19 19 19 19 19 19 19 19 19 19 19 19 19 19 19 19 19 19 19 19 19
27 26 26 27 27 27 25 24 25 25 24 23 23 22 22 22 22 22 21 21 21 20 20 20 20 20 20 19 19 19 19 19 19 19 19 19 19 19 19 19 19 19 19 19 19 19 19 19 19
25 25 25 27 28 27 25 24 25 25 24 23 23 23 22 22 22 22 22 21 21 21 20 20 20 20 20 19 19 19 19 19 19 19 19 19 19 19 19 19 19 19 19 19 19 19 19 19 19
25 25 25 26 27 27 25 25 25 25 24 24 23 23 22 22 22 22 22 21 21 21 20 20 20 20 20 19 19 19 19 19 19 19 19 19 19 19 19 19 19 19 19 19 19 19 19 19 19
26 26 26 26 27 26 26 25 25 25 25 24 23 23 23 22 23 22 22 22 21 21 21 20 20 20 20 20 19 19 19 19 19 19 19 19 19 19 19 19 19 19 19 19 19 19 19 19 19
27 26 26 26 27 26 25 25 25 25 25 24 24 23 23 23 22 22 22 22 21 21 21 20 20 20 20 20 20 20 20 19 19 19 19 19 19 19 19 19 19 19 19 19 19 19 19 19 18
27 26 26 26 27 26 26 25 25 25 26 25 24 24 23 23 23 22 22 22 22 21 21 21 20 20 20 20 20 19 19 19 19 19 19 19 19 19 19 19 19 19 19 19 19 19 19 19 19
26 28 28 27 25 24 25 23 24 24 24 24 24 24 23 23 23 23 22 22 22 22 21 21 21 20 20 20 19 19 19 19 20 19 19 19 19 19 19 19 19 19 19 19 19 19 19 19 19
27 28 28 27 25 24 24 23 23 24 24 24 24 24 24 24 24 23 23 23 22 22 21 21 21 20 20 20 20 20 19 20 19 19 19 19 19 19 19 19 19 19 19 19 19 19 19 19 19
28 27 25 24 22 23 24 24 23 23 24 25 25 25 24 24 24 23 23 23 22 22 21 21 21 21 20 20 20 20 20 20 19 19 19 19 19 19 19 19 19 19 19 19 19 19 19 19 19
27 24 23 23 22 23 24 24 23 25 25 25 25 25 24 24 24 23 23 23 23 22 22 21 21 21 20 20 20 20 20 20 20 19 19 19 19 19 19 19 19 19 19 19 19 19 19 19 19
26 24 23 23 23 23 24 24 24 26 26 27 26 26 25 24 24 24 24 23 23 22 22 22 21 21 20 20 20 20 20 20 20 20 20 19 19 20 19 19 19 19 19 19 19 19 19 19 19
27 24 23 22 22 23 23 24 25 26 25 25 26 25 25 25 24 24 24 24 23 23 23 22 22 21 21 21 20 20 20 20 20 20 19 19 19 19 19 19 19 19 19 19 19 19 19 19 19
27 25 22 22 22 23 24 24 24 25 24 24 24 25 25 25 25 24 24 24 24 23 23 23 22 22 21 21 21 20 20 20 20 19 19 19 19 19 19 19 19 19 19 19 19 19 18 18 18
27 26 23 21 21 22 23 23 25 24 24 24 25 25 25 25 25 25 25 24 24 23 23 23 22 22 22 21 21 21 20 20 20 19 19 19 19 19 19 19 19 19 19 18 18 18 18 18 18
27 26 23 23 22 21 21 23 26 25 25 25 25 26 26 26 25 25 25 24 24 23 23 23 23 22 22 22 21 21 21 20 20 20 19 19 19 19 19 19 19 19 19 18 18 18 18 18 18
Wind_Speed
9 7 3 1 2 3 2 2 4 6 5 7 10 10 9 6 4 6 3 8 11 9 10 13 15 15 15 16 16 16 16 16 16 16 16 16 16 15 15 15 14 13 13 13 12 12 11 10 9
7 4 1 1 3 3 2 4 9 10 9 9 10 11 9 7 6 8 6 9 11 10 10 13 15 15 15 15 15 15 15 16 15 15 15 15 15 14 14 13 13 12 12 12 11 10 9 9 8
5 4 1 1 1 3 3 5 11 12 10 8 6 7 6 5 7 6 8 12 10 9 10 13 16 15 15 15 15 15 15 15 15 14 14 14 14 13 13 12 11 11 10 10 9 8 8 7 7
2 1 1 2 1 2 5 7 12 13 9 9 8 7 5 5 5 8 12 12 11 9 11 13 16 15 15 15 15 15 15 14 14 13 13 12 12 12 12 11 10 9 9 8 7 7 6 6 6
1 1 3 2 2 3 7 10 12 12 7 10 11 8 5 5 11 13 11 11 11 8 9 13 15 15 15 15 14 14 14 14 14 13 11 11 11 10 10 9 8 8 7 6 6 5 5 5 5
1 2 2 1 4 5 7 10 14 15 13 10 9 7 4 7 11 11 11 10 10 9 9 11 14 15 15 14 14 13 13 13 13 12 11 10 9 9 9 8 7 7 6 6 5 5 5 5 4
2 1 1 2 5 7 7 9 12 12 11 7 7 6 5 6 8 10 10 10 9 9 8 8 11 12 13 13 13 13 12 12 11 11 11 9 8 8 7 7 6 5 5 5 4 4 4 3 3
3 1 1 2 6 6 7 9 10 12 9 8 6 7 6 7 9 9 9 9 8 7 7 7 8 9 9 10 12 12 12 11 10 10 10 9 8 7 6 6 5 4 4 3 3 3 3 2 2
3 1 1 3 6 6 10 13 9 10 10 6 5 6 10 13 11 10 9 7 7 8 6 6 6 7 8 8 10 11 10 10 9 8 9 8 5 5 4 5 5 4 3 3 2 3 2 2 1
4 2 3 4 8 9 12 13 8 8 11 9 11 11 13 13 11 10 10 9 8 8 7 6 7 7 8 8 8 7 7 6 6 6 6 6 5 4 4 5 4 3 3 3 2 2 2 1 1
4 4 3 7 8 10 11 9 7 10 9 11 14 14 13 12 10 10 9 8 8 8 8 7 7 6 6 4 6 5 5 5 5 6 6 6 4 4 3 3 3 3 2 2 1 1 1 1 1
2 2 4 7 9 11 11 9 8 8 10 13 14 15 12 11 10 9 9 8 7 7 7 7 7 6 5 5 5 5 4 4 4 5 7 6 4 3 3 2 2 2 2 1 1 1 1 1 1
3 2 4 8 11 11 12 11 11 11 13 14 14 13 12 11 9 8 8 8 8 7 7 7 6 6 5 4 4 5 4 4 5 6 6 7 4 3 3 2 3 3 2 1 1 1 0 0 0
1 1 2 7 10 10 14 10 9 11 15 14 13 12 11 11 10 9 8 8 8 8 7 6 6 6 6 4 3 3 4 4 5 5 7 8 6 4 3 2 2 2 3 3 2 2 1 0 1
2 4 3 4 7 8 12 7 9 14 15 14 13 12 11 10 10 10 10 9 8 8 7 7 7 6 6 5 4 4 4 4 3 4 6 6 6 5 4 2 2 2 3 2 2 1 1 1 1
4 4 1 2 6 7 10 7 9 13 14 13 12 12 11 9 10 10 10 9 8 8 8 7 8 7 5 4 3 3 4 4 4 4 5 5 5 5 4 2 1 2 2 2 2 1 1 1 1
3 1 1 3 2 5 6 7 10 11 13 12 12 11 11 10 9 9 10 10 9 9 8 7 7 7 6 5 3 3 3 3 3 4 4 4 5 5 4 2 1 2 2 1 2 2 2 1 0
2 1 1 3 3 3 5 6 12 12 13 12 11 11 11 11 10 10 10 10 9 8 8 7 6 6 6 4 3 2 2 2 2 3 4 4 4 4 4 2 2 2 2 1 1 1 1 1 1
4 2 2 3 3 2 5 8 11 12 12 12 11 11 11 11 10 10 11 11 9 8 8 7 6 5 5 3 3 3 2 2 2 2 4 4 4 4 4 2 2 2 2 1 2 2 1 0 1
2 2 1 2 2 3 4 5 9 12 15 15 15 14 13 11 10 11 10 10 10 9 8 7 7 6 5 4 3 3 3 2 2 1 2 4 4 4 4 4 3 2 2 2 2 2 1 0 1
2 4 4 3 1 2 4 1 5 7 8 11 13 13 13 15 15 13 12 11 10 10 10 9 8 7 6 5 3 2 2 1 1 0 1 2 4 4 4 4 3 3 3 2 2 2 3 1 0
4 5 4 3 2 1 3 2 6 7 7 11 12 12 14 14 13 13 12 11 12 11 9 8 8 6 5 5 4 5 4 3 3 2 2 1 2 3 4 4 4 3 3 3 2 2 2 3 1
5 3 3 2 2 1 1 2 6 4 7 11 13 15 15 15 15 14 13 13 11 10 9 8 8 7 6 5 6 5 4 3 2 2 2 1 1 2 3 4 4 3 3 3 2 2 2 2 2
4 4 5 4 4 1 4 3 5 6 11 11 13 15 15 15 14 13 12 11 9 9 9 8 8 7 6 6 6 6 5 4 3 2 2 2 1 1 2 3 3 3 3 3 3 2 2 2 2
4 5 4 5 4 4 4 2 7 8 8 11 14 14 14 14 14 13 13 13 12 12 11 9 9 7 6 6 6 6 6 6 5 4 4 3 2 2 3 3 3 3 3 3 3 2 2 2 2
4 9 7 4 4 4 3 3 6 5 5 7 10 12 13 14 14 14 15 15 14 14 12 11 10 8 7 7 7 6 6 5 4 5 4 4 4 4 3 3 3 3 3 3 2 2 2 2 2
3 3 8 7 2 0 3 4 5 3 3 5 7 9 12 14 15 15 14 14 14 14 13 13 12 10 8 7 7 6 6 5 5 4 4 3 3 3 3 3 3 3 3 3 3 2 2 1 1
6 7 6 5 4 1 3 3 4 3 3 4 7 9 10 12 13 13 14 14 13 13 12 12 12 11 9 9 8 7 6 6 5 4 4 4 3 3 4 3 3 3 3 3 3 2 2 2 1
0 2 5 5 6 6 2 6 6 7 7 7 7 9 11 11 12 12 13 13 12 11 12 11 11 10 9 9 8 7 6 6 5 5 5 4 4 4 4 4 4 3 3 3 3 3 2 2 2
5 6 7 5 3 5 5 6 5 6 6 6 6 7 9 10 11 10 10 11 11 11 11 11 11 11 11 10 8 8 6 6 6 6 5 5 4 4 4 4 4 4 4 4 4 4 3 3 3
Wind_Direction
162 162 163 183 37 41 58 86 101 82 63 63 75 82 83 64 93 131 153 136 133 137 140 132 126 122 118 117 117 115 113 112 112 112 112 113 113 115 116 117 117 117 118 118 117 118 120 121 122
159 163 177 50 69 62 50 99 90 93 117 108 82 79 75 70 83 114 126 137 136 137 136 134 131 127 123 121 119 118 117 116 115 115 116 116 116 116 116 118 117 117 118 120 122 123 124 126 124
171 184 189 72 106 148 133 108 103 99 97 94 83 65 70 96 108 127 140 139 134 134 137 137 135 131 128 125 122 121 121 121 119 117 118 120 120 120 119 119 119 119 120 121 124 126 127 125 119
168 135 25 46 51 159 132 126 114 103 77 71 90 74 72 89 112 126 131 135 132 134 141 142 137 134 131 128 126 125 125 124 123 122 121 122 123 122 121 122 123 122 122 123 124 127 126 119 117
142 84 38 13 70 91 104 109 104 97 83 84 89 92 77 80 111 126 133 133 134 135 142 144 140 138 135 131 130 130 129 128 126 124 123 122 123 124 125 126 126 126 127 126 125 126 126 121 118
43 58 54 56 94 90 103 105 100 96 103 100 98 100 100 123 127 136 141 141 141 141 143 144 144 143 141 139 136 135 134 133 132 131 129 126 124 127 129 128 131 133 134 129 127 133 136 133 127
126 75 213 152 110 102 105 103 104 109 106 106 116 101 115 135 140 137 138 138 139 142 141 144 147 146 145 145 144 143 142 142 142 142 139 137 135 134 136 138 144 141 136 132 135 137 133 130 125
161 118 280 119 113 103 102 95 109 113 103 123 119 121 147 159 139 129 130 132 137 142 145 145 145 146 148 150 153 153 152 151 153 153 151 149 146 145 146 151 160 155 151 151 155 149 140 136 130
145 93 233 162 130 123 108 100 95 97 111 108 95 120 145 143 130 123 122 124 138 147 153 150 148 153 156 156 159 160 159 161 161 161 161 155 150 154 166 178 178 180 180 178 175 177 174 177 173
145 158 207 156 140 137 123 115 113 101 98 99 101 108 128 133 129 125 130 133 141 151 161 163 160 166 170 166 156 160 163 166 166 164 162 157 158 170 188 205 206 215 219 222 217 220 219 206 186
153 161 140 117 130 130 121 110 111 115 116 132 134 137 139 135 133 133 136 139 142 150 154 161 162 167 165 153 155 164 169 175 177 172 172 168 166 172 176 189 213 224 225 241 239 222 219 214 213
130 151 127 128 127 122 124 122 115 118 139 140 137 140 140 138 140 144 143 142 139 139 146 151 151 149 150 148 153 161 162 176 185 185 175 164 155 162 172 183 204 220 230 239 228 212 218 217 198
99 91 119 127 119 118 118 122 119 124 133 134 133 134 139 141 144 145 143 143 140 140 143 149 144 144 144 142 159 158 163 167 175 173 176 170 160 160 173 197 209 226 223 200 202 189 130 28 122
146 91 136 124 121 124 123 126 117 140 139 137 138 142 147 148 147 142 142 142 146 149 149 150 145 147 146 150 148 156 168 166 165 169 176 173 172 171 171 184 205 221 208 195 182 171 143 131 104
54 59 29 123 128 135 118 112 140 151 146 144 146 150 150 153 150 152 158 155 153 152 149 152 151 143 142 144 145 153 161 155 158 165 172 171 175 174 171 172 191 198 184 170 137 116 107 99 93
31 56 40 253 135 149 119 148 166 157 150 150 152 153 152 156 158 158 158 153 151 147 148 158 153 145 146 143 142 146 153 149 159 159 161 169 173 170 157 157 189 184 155 146 147 135 105 64 55
23 43 258 286 176 148 120 157 176 166 157 157 159 159 158 159 159 158 158 155 153 150 151 154 144 149 152 147 144 148 151 150 162 158 161 167 159 160 152 162 177 159 127 128 148 125 140 148 309
241 268 274 238 232 135 134 163 168 172 167 165 164 162 163 166 170 163 159 156 154 154 152 149 145 152 148 139 127 120 128 151 165 173 180 171 166 159 154 165 166 139 121 112 123 136 136 173 200
193 214 247 256 217 154 157 162 173 176 174 170 169 168 171 174 171 163 160 157 155 154 153 157 153 157 149 143 147 149 165 174 178 189 189 178 173 166 157 160 144 136 143 163 148 149 139 235 106
175 180 221 288 194 144 152 173 185 183 184 180 176 177 175 170 167 169 166 164 164 163 162 162 164 163 164 164 168 167 164 180 187 196 187 184 170 165 163 155 149 146 140 119 128 132 126 242 116
230 193 196 210 237 107 120 154 206 200 185 183 183 180 176 175 176 176 174 172 169 171 171 172 173 172 172 167 145 126 93 66 59 168 193 191 171 168 154 155 152 155 151 164 169 151 145 173 285
252 234 196 184 104 274 146 205 247 208 189 185 184 180 181 182 177 177 174 175 178 180 174 167 168 169 171 163 157 160 164 176 205 200 196 207 182 168 165 162 158 156 152 161 179 156 152 148 192
219 219 144 156 127 32 353 140 270 194 199 199 190 186 186 184 179 180 178 178 178 176 173 170 167 170 168 165 168 166 172 183 187 178 175 187 200 187 174 165 159 159 158 163 171 151 150 165 175
160 67 42 53 76 340 244 175 265 210 206 200 191 188 184 181 179 181 178 170 171 170 172 173 171 178 177 172 171 169 173 172 162 173 183 194 203 217 202 177 172 170 168 170 181 175 165 173 176
105 93 32 8 14 257 262 187 244 232 209 194 190 186 183 181 178 179 177 175 176 176 177 175 175 184 188 185 184 183 182 176 177 186 191 191 192 208 216 196 183 183 188 186 179 171 186 191 194
185 143 156 185 215 272 317 223 258 251 199 175 176 176 176 178 181 183 183 180 180 180 179 177 182 187 190 192 198 192 185 182 185 189 188 196 201 209 205 196 194 198 194 190 176 178 204 198 217
159 169 166 142 153 354 291 289 319 24 96 129 146 162 176 180 182 184 184 182 181 181 183 182 185 188 194 198 196 196 191 187 188 188 187 196 205 204 187 189 191 196 191 185 168 180 201 175 197
158 156 102 114 136 233 288 270 240 240 196 179 160 170 183 184 184 183 183 185 185 184 184 182 183 187 191 195 194 196 195 193 190 183 189 197 202 195 178 190 197 198 192 188 179 188 199 177 219
243 101 111 124 149 153 219 269 229 199 196 183 179 178 179 181 183 183 184 182 180 178 178 182 184 185 188 192 194 195 193 190 188 195 200 200 195 185 183 187 188 198 203 200 188 204 201 195 227
174 176 146 148 203 163 168 258 257 194 191 172 172 176 175 177 176 176 178 176 174 178 180 182 185 189 194 194 191 193 191 184 189 198 199 194 190 185 184 183 187 200 201 194 191 205 205 203 217
Height
1509 1510 1510 1510 1512 1518 1517 1508 1501 1500 1501 1502 1501 1501 1504 1508 1512 1520 1517 1517 1518 1519 1519 1520 1521 1521 1522 1522 1522 1523 1523 1524 1525 1526 1527 1528 1529 1530 1531 1531 1532 1533 1534 1535 1536 1537 1537 1537 1538
1510 1509 1511 1511 1516 1527 1519 1505 1502 1502 1503 1502 1503 1505 1506 1510 1512 1514 1515 1518 1519 1520 1521 1522 1523 1523 1523 1524 1524 1525 1525 1526 1527 1528 1529 1530 1531 1532 1532 1533 1534 1535 1536 1537 1537 1538 1539 1539 1539
1510 1509 1512 1512 1517 1521 1515 1504 1502 1503 1503 1502 1505 1507 1509 1513 1514 1515 1517 1519 1520 1521 1522 1523 1524 1525 1525 1526 1526 1527 1527 1528 1529 1530 1531 1532 1532 1533 1534 1535 1536 1537 1538 1538 1539 1539 1540 1540 1540
1511 1511 1512 1515 1516 1508 1504 1502 1502 1504 1505 1505 1506 1511 1514 1516 1516 1517 1518 1520 1521 1522 1523 1525 1526 1526 1527 1527 1528 1529 1529 1530 1531 1532 1533 1533 1534 1535 1536 1536 1538 1539 1539 1540 1540 1541 1541 1541 1541
1511 1511 1515 1519 1512 1504 1500 1501 1502 1503 1507 1509 1508 1513 1517 1518 1518 1519 1519 1521 1522 1523 1524 1526 1527 1528 1528 1529 1530 1530 1531 1532 1533 1534 1535 1535 1536 1537 1537 1538 1539 1540 1541 1541 1542 1542 1542 1542 1542
1512 1512 1521 1523 1512 1504 1502 1502 1503 1506 1510 1511 1512 1515 1519 1520 1519 1519 1520 1522 1523 1524 1525 1527 1528 1529 1530 1531 1532 1532 1533 1534 1535 1536 1536 1537 1538 1538 1539 1540 1541 1541 1542 1543 1543 1543 1543 1543 1543
1513 1515 1519 1516 1512 1508 1505 1504 1504 1508 1511 1512 1513 1516 1520 1521 1521 1521 1521 1522 1523 1525 1526 1528 1529 1530 1531 1532 1533 1534 1535 1536 1537 1537 1538 1539 1540 1540 1541 1542 1542 1543 1543 1544 1544 1544 1544 1544 1544
1511 1514 1516 1513 1512 1510 1505 1505 1507 1508 1512 1514 1514 1516 1520 1522 1522 1522 1522 1523 1524 1526 1527 1529 1530 1531 1532 1533 1534 1535 1536 1537 1538 1539 1540 1540 1541 1542 1542 1543 1544 1544 1545 1545 1545 1545 1545 1545 1545
1509 1517 1519 1512 1510 1510 1506 1506 1510 1510 1512 1514 1515 1516 1518 1521 1522 1523 1523 1524 1525 1527 1528 1530 1531 1532 1534 1534 1535 1536 1537 1538 1539 1540 1541 1541 1542 1543 1544 1544 1545 1545 1546 1546 1546 1546 1546 1546 1546
1508 1516 1510 1501 1501 1504 1506 1507 1510 1513 1514 1516 1518 1519 1520 1522 1523 1523 1524 1525 1526 1527 1529 1531 1532 1533 1534 1535 1536 1537 1538 1539 1540 1541 1541 1542 1543 1544 1545 1545 1546 1546 1547 1547 1547 1547 1547 1547 1547
1505 1508 1501 1499 1500 1502 1506 1509 1510 1512 1516 1517 1517 1520 1522 1523 1524 1525 1525 1526 1527 1528 1530 1531 1533 1534 1535 1536 1537 1538 1539 1540 1541 1541 1542 1543 1544 1545 1545 1546 1547 1547 1547 1548 1548 1548 1548 1548 1548
1504 1501 1499 1500 1500 1502 1506 1509 1512 1512 1516 1517 1518 1520 1522 1524 1525 1526 1527 1528 1529 1530 1531 1532 1534 1535 1536 1537 1538 1539 1540 1540 1541 1542 1543 1544 1544 1545 1546 1547 1547 1548 1548 1548 1549 1549 1548 1548 1548
1502 1501 1500 1500 1501 1503 1505 1509 1511 1515 1517 1519 1520 1522 1523 1525 1526 1528 1529 1529 1530 1531 1532 1533 1535 1536 1537 1538 1539 1540 1540 1541 1542 1543 1543 1544 1545 1546 1547 1547 1548 1548 1549 1549 1549 1549 1549 1549 1548
1502 1501 1501 1502 1503 1505 1507 1511 1512 1517 1518 1520 1522 1523 1524 1526 1527 1528 1529 1530 1531 1532 1533 1535 1536 1537 1538 1539 1539 1540 1541 1542 1542 1543 1544 1545 1545 1546 1547 1548 1548 1549 1549 1549 1549 1549 1549 1549 1549
1502 1504 1504 1503 1504 1507 1509 1516 1514 1517 1518 1520 1522 1524 1525 1526 1527 1528 1529 1530 1532 1533 1534 1535 1537 1538 1539 1540 1540 1541 1542 1543 1543 1544 1544 1545 1546 1547 1548 1548 1549 1549 1549 1549 1549 1549 1549 1549 1549
1505 1511 1516 1506 1504 1507 1512 1526 1517 1517 1518 1520 1522 1524 1525 1526 1528 1529 1530 1531 1532 1533 1535 1536 1538 1539 1540 1541 1541 1542 1542 1543 1543 1544 1545 1545 1546 1547 1548 1548 1549 1549 1549 1549 1549 1549 1549 1549 1549
1515 1522 1521 1511 1503 1505 1511 1521 1517 1517 1518 1520 1522 1523 1525 1527 1528 1529 1530 1532 1533 1534 1535 1537 1538 1539 1540 1541 1542 1542 1543 1543 1544 1544 1545 1546 1546 1547 1548 1548 1549 1549 1549 1549 1549 1549 1549 1549 1549
1525 1522 1520 1516 1506 1506 1511 1515 1515 1516 1517 1519 1521 1523 1524 1526 1527 1529 1530 1532 1533 1534 1535 1537 1538 1539 1540 1541 1542 1543 1543 1544 1544 1545 1545 1546 1547 1547 1547 1548 1548 1549 1549 1549 1549 1549 1549 1549 1549
1511 1516 1519 1512 1504 1508 1512 1514 1513 1514 1516 1518 1520 1521 1523 1525 1527 1529 1530 1531 1533 1534 1535 1536 1538 1539 1540 1541 1541 1542 1543 1544 1544 1545 1545 1546 1546 1547 1547 1548 1548 1548 1549 1549 1549 1549 1549 1549 1549
1509 1516 1516 1511 1503 1508 1513 1514 1511 1511 1512 1514 1516 1519 1521 1524 1526 1527 1529 1530 1532 1533 1534 1536 1537 1538 1539 1540 1541 1542 1543 1544 1544 1545 1545 1546 1546 1547 1547 1547 1548 1548 1548 1548 1548 1549 1549 1549 1549
1508 1513 1514 1514 1508 1508 1514 1521 1515 1512 1512 1513 1515 1517 1519 1520 1522 1525 1527 1528 1530 1532 1533 1535 1536 1538 1539 1540 1541 1542 1543 1543 1544 1544 1545 1545 1546 1546 1547 1547 1547 1547 1548 1547 1548 1548 1548 1548 1548
1512 1501 1502 1507 1517 1526 1519 1538 1520 1512 1512 1511 1513 1516 1517 1519 1520 1522 1524 1527 1528 1530 1532 1534 1535 1536 1538 1539 1540 1541 1541 1542 1543 1543 1544 1544 1545 1545 1546 1546 1546 1546 1547 1547 1547 1547 1548 1548 1548
1502 1495 1500 1506 1516 1526 1522 1534 1526 1513 1514 1510 1510 1511 1513 1516 1518 1520 1522 1524 1527 1529 1531 1532 1534 1535 1537 1538 1539 1540 1541 1542 1542 1543 1543 1543 1544 1545 1545 1545 1545 1545 1546 1546 1546 1547 1547 1547 1547
1493 1499 1506 1513 1524 1540 1527 1532 1530 1515 1507 1504 1505 1507 1510 1513 1516 1518 1521 1523 1525 1527 1529 1531 1532 1534 1535 1536 1537 1538 1539 1540 1541 1542 1542 1542 1543 1543 1544 1544 1544 1544 1545 1545 1545 1546 1546 1546 1546
1496 1516 1538 1542 1549 1544 1523 1526 1523 1502 1496 1497 1499 1503 1507 1510 1513 1516 1518 1520 1523 1525 1527 1529 1530 1532 1534 1535 1536 1537 1538 1539 1540 1540 1540 1541 1541 1542 1542 1542 1543 1543 1543 1544 1544 1545 1545 1545 1545
1498 1511 1538 1550 1553 1542 1524 1526 1511 1493 1490 1492 1495 1499 1504 1508 1510 1512 1514 1517 1520 1522 1525 1526 1528 1530 1531 1532 1534 1535 1536 1537 1538 1538 1539 1539 1540 1540 1541 1541 1541 1542 1542 1543 1543 1543 1543 1543 1543
1498 1508 1510 1530 1537 1543 1533 1519 1503 1493 1492 1493 1496 1499 1502 1505 1507 1509 1512 1515 1517 1520 1522 1524 1526 1528 1529 1529 1531 1533 1534 1535 1536 1536 1537 1538 1538 1539 1539 1539 1540 1540 1541 1541 1541 1541 1541 1541 1542
1487 1496 1514 1529 1545 1551 1536 1526 1520 1503 1499 1495 1496 1498 1500 1502 1505 1507 1509 1512 1515 1517 1520 1522 1524 1525 1527 1528 1529 1530 1532 1533 1534 1534 1535 1536 1536 1537 1537 1537 1538 1538 1539 1539 1539 1539 1539 1540 1540
1492 1498 1509 1523 1529 1545 1548 1533 1498 1496 1493 1493 1494 1495 1497 1499 1502 1504 1506 1509 1512 1515 1517 1519 1521 1523 1524 1526 1527 1528 1529 1530 1531 1532 1532 1533 1534 1535 1535 1535 1536 1536 1536 1537 1537 1537 1537 1537 1537
1485 1492 1504 1522 1528 1531 1538 1528 1489 1489 1489 1490 1491 1493 1495 1497 1499 1502 1504 1507 1510 1513 1515 1517 1519 1520 1522 1523 1525 1526 1527 1527 1528 1529 1530 1531 1532 1533 1533 1533 1533 1534 1534 1534 1534 1534 1535 1535 1535